Siren, WI

4:26 AM CDT on April 30, 2017 (GMT -0500)
Burnett County

Weather History for KRZN - December, 2012

Change the Weather History Date:

Tuesday, December 4, 2012

  Actual Average Record
Temperature  
Mean Temperature 28 °F -  
Max Temperature 39 °F - - ()
Min Temperature 15 °F - - ()
Degree Days  
Heating Degree Days 37    
Moisture  
Dew Point 16 °F    
Average Humidity 63    
Maximum Humidity 79    
Minimum Humidity 47    
Precipitation  
Precipitation 0.00 in - - ()
Sea Level Pressure  
Sea Level Pressure 30.13 in    
Wind  
Wind Speed 10 mph (NNW)    
Max Wind Speed 17 mph    
Max Gust Speed 23 mph    
Visibility 10 miles    
Events      
Averages and records for this station are not official NWS values.
T = Trace of Precipitation, MM = Missing Value Source: NWS Daily Summary

Daily Weather History Graph

Daily Weather History Graph

Search for Another Location

Airport or City:

Trip Planner

Search our weather history database for the weather conditions in past years. The results will help you decide how hot, cold, wet, or windy it might be!

Date:

Astronomy

Dec. 04, 2012 Rise Set
Actual Time 7:34 AM CST 4:25 PM CST
Civil Twilight 7:00 AM CST 4:59 PM CST
Nautical Twilight 6:22 AM CST 5:36 PM CST
Astronomical Twilight 5:46 AM CST 6:12 PM CST
Moon 10:25 PM CST (12/4) 11:17 AM CST (12/4)
Length of Visible Light 9h 59m
Length of Day
8h 51m
Waning Gibbous, 69% of the Moon is Illuminated
Dec 4
Waning Gibbous
Dec 6
Last Quarter
Dec 13
New
Dec 19
First Quarter
Dec 28
Full

Hourly Weather History & Observations

Time (CST) Temp. Windchill Dew Point Humidity Pressure Visibility Wind Dir Wind Speed Gust Speed Precip Events Conditions
12:15 AM 39.2 °F 31.6 °F 30.2 °F 70% 29.83 in 10.0 mi WNW 12.7 mph - N/A   Clear
12:35 AM 39.2 °F 32.0 °F 30.2 °F 70% 29.83 in 10.0 mi WNW 11.5 mph 16.1 mph N/A   Clear
12:55 AM 39.2 °F 32.5 °F 30.2 °F 70% 29.85 in 10.0 mi West 10.4 mph 19.6 mph N/A   Clear
1:15 AM 37.4 °F 28.9 °F 28.4 °F 70% 29.85 in 10.0 mi WNW 13.8 mph 18.4 mph N/A   Clear
1:35 AM 37.4 °F 31.4 °F 28.4 °F 70% 29.86 in 10.0 mi WNW 8.1 mph 19.6 mph N/A   Clear
1:55 AM 35.6 °F 27.1 °F 28.4 °F 75% 29.86 in 10.0 mi WNW 12.7 mph - N/A   Clear
2:15 AM 35.6 °F 28.0 °F 28.4 °F 75% 29.88 in 10.0 mi WNW 10.4 mph 16.1 mph N/A   Clear
2:55 AM 33.8 °F 24.8 °F 26.6 °F 75% 29.90 in 10.0 mi WNW 12.7 mph 18.4 mph N/A   Clear
3:15 AM 33.8 °F 26.4 °F 26.6 °F 75% 29.90 in 10.0 mi WNW 9.2 mph - N/A   Clear
3:35 AM 33.8 °F 25.3 °F 26.6 °F 75% 29.90 in 10.0 mi WNW 11.5 mph - N/A   Clear
3:55 AM 32.0 °F 24.8 °F 24.8 °F 75% 29.92 in 10.0 mi NW 8.1 mph 18.4 mph N/A   Clear
4:15 AM 32.0 °F 26.4 °F 24.8 °F 75% 29.93 in 10.0 mi WNW 5.8 mph - N/A   Clear
4:35 AM 32.0 °F 23.6 °F 24.8 °F 75% 29.93 in 10.0 mi WNW 10.4 mph - N/A   Clear
4:55 AM 32.0 °F 24.2 °F 23.0 °F 69% 29.94 in 10.0 mi WNW 9.2 mph - N/A   Clear
5:15 AM 32.0 °F 23.6 °F 21.2 °F 64% 29.95 in 10.0 mi WNW 10.4 mph - N/A   Clear
5:35 AM 30.2 °F 20.8 °F 21.2 °F 69% 29.96 in 10.0 mi NW 11.5 mph 18.4 mph N/A   Clear
5:55 AM 30.2 °F 22.6 °F 21.2 °F 69% 29.96 in 10.0 mi WNW 8.1 mph - N/A   Clear
6:15 AM 30.2 °F 22.6 °F 19.4 °F 64% 29.98 in 10.0 mi WNW 8.1 mph - N/A   Clear
6:35 AM 28.4 °F 19.1 °F 19.4 °F 69% 29.99 in 10.0 mi NW 10.4 mph - N/A   Clear
6:55 AM 28.4 °F 19.7 °F 17.6 °F 64% 30.00 in 10.0 mi WNW 9.2 mph 16.1 mph N/A   Clear
7:15 AM 28.4 °F 19.7 °F 17.6 °F 64% 30.01 in 10.0 mi NW 9.2 mph - N/A   Clear
7:35 AM 26.6 °F 16.8 °F 17.6 °F 69% 30.02 in 10.0 mi NW 10.4 mph - N/A   Clear
7:55 AM 26.6 °F 15.2 °F 15.8 °F 64% 30.04 in 10.0 mi NW 13.8 mph 19.6 mph N/A   Clear
8:15 AM 26.6 °F 15.7 °F 17.6 °F 69% 30.05 in 10.0 mi NW 12.7 mph 21.9 mph N/A   Clear
8:35 AM 26.6 °F 16.2 °F 17.6 °F 69% 30.07 in 10.0 mi NW 11.5 mph - N/A   Clear
8:55 AM 26.6 °F 16.2 °F 17.6 °F 69% 30.08 in 10.0 mi NW 11.5 mph 18.4 mph N/A   Clear
9:15 AM 26.6 °F 16.2 °F 17.6 °F 69% 30.08 in 10.0 mi NW 11.5 mph 19.6 mph N/A   Clear
9:35 AM 26.6 °F 15.2 °F 17.6 °F 69% 30.10 in 10.0 mi NW 13.8 mph - N/A   Clear
9:55 AM 26.6 °F 15.2 °F 15.8 °F 64% 30.10 in 10.0 mi NNW 13.8 mph 19.6 mph N/A   Clear
10:15 AM 28.4 °F 16.6 °F 14.0 °F 55% 30.11 in 10.0 mi NW 16.1 mph 19.6 mph N/A   Clear
10:35 AM 26.6 °F 15.7 °F 14.0 °F 59% 30.12 in 10.0 mi NW 12.7 mph 18.4 mph N/A   Clear
10:55 AM 26.6 °F 15.7 °F 12.2 °F 55% 30.13 in 10.0 mi NW 12.7 mph 19.6 mph N/A   Clear
11:15 AM 26.6 °F 15.2 °F 12.2 °F 55% - 10.0 mi NNW 13.8 mph 20.7 mph N/A   Clear
11:35 AM 26.6 °F 13.8 °F 10.4 °F 51% 30.13 in 10.0 mi NNW 17.3 mph 23.0 mph N/A   Clear
11:55 AM 28.4 °F 17.5 °F 12.2 °F 51% 30.14 in 10.0 mi NW 13.8 mph - N/A   Clear
12:15 PM 28.4 °F 16.6 °F 10.4 °F 47% 30.14 in 10.0 mi NNW 16.1 mph 20.7 mph N/A   Clear
12:35 PM 28.4 °F 17.5 °F 10.4 °F 47% 30.15 in 10.0 mi NNW 13.8 mph 21.9 mph N/A   Clear
12:55 PM 28.4 °F 18.5 °F 10.4 °F 47% 30.15 in 10.0 mi North 11.5 mph 20.7 mph N/A   Clear
1:15 PM 28.4 °F 17.5 °F 12.2 °F 51% 30.16 in 10.0 mi NW 13.8 mph 18.4 mph N/A   Clear
1:35 PM 28.4 °F 16.6 °F 10.4 °F 47% 30.17 in 10.0 mi North 16.1 mph 19.6 mph N/A   Clear
1:55 PM 28.4 °F 18.0 °F 12.2 °F 51% 30.18 in 10.0 mi NW 12.7 mph - N/A   Clear
2:15 PM 28.4 °F 17.5 °F 10.4 °F 47% 30.19 in 10.0 mi NW 13.8 mph 19.6 mph N/A   Clear
2:35 PM 28.4 °F 18.0 °F 10.4 °F 47% 30.19 in 10.0 mi NNW 12.7 mph 20.7 mph N/A   Clear
2:55 PM 28.4 °F 16.6 °F 10.4 °F 47% 30.20 in 10.0 mi NNW 16.1 mph - N/A   Clear
3:15 PM 28.4 °F 18.0 °F 10.4 °F 47% 30.20 in 10.0 mi North 12.7 mph 16.1 mph N/A   Clear
3:35 PM 28.4 °F 20.4 °F 10.4 °F 47% 30.22 in 10.0 mi NNW 8.1 mph - N/A   Clear
3:55 PM 26.6 °F 18.2 °F 10.4 °F 51% 30.23 in 10.0 mi NW 8.1 mph - N/A   Clear
4:15 PM 26.6 °F 18.2 °F 10.4 °F 51% 30.24 in 10.0 mi NNW 8.1 mph - N/A   Clear
4:55 PM 23.0 °F 15.8 °F 10.4 °F 59% 30.26 in 10.0 mi NNW 5.8 mph - N/A   Clear
5:15 PM 23.0 °F 17.0 °F 10.4 °F 59% 30.27 in 10.0 mi NNW 4.6 mph - N/A   Clear
5:35 PM 23.0 °F 14.7 °F 10.4 °F 59% 30.28 in 10.0 mi North 6.9 mph - N/A   Clear
5:55 PM 23.0 °F 15.8 °F 10.4 °F 59% 30.28 in 10.0 mi North 5.8 mph - N/A   Clear
6:15 PM 23.0 °F 17.0 °F 10.4 °F 59% 30.29 in 10.0 mi North 4.6 mph - N/A   Clear
6:35 PM 23.0 °F 13.9 °F 10.4 °F 59% 30.29 in 10.0 mi North 8.1 mph - N/A   Clear
6:55 PM 23.0 °F 15.8 °F 10.4 °F 59% 30.30 in 10.0 mi North 5.8 mph - N/A   Clear
7:15 PM 21.2 °F 13.6 °F 10.4 °F 63% 30.32 in 10.0 mi North 5.8 mph - N/A   Clear
7:35 PM 21.2 °F 13.6 °F 10.4 °F 63% 30.32 in 10.0 mi North 5.8 mph - N/A   Clear
7:55 PM 21.2 °F 13.6 °F 10.4 °F 63% 30.33 in 10.0 mi North 5.8 mph - N/A   Clear
8:15 PM 19.4 °F 12.8 °F 10.4 °F 68% 30.34 in 10.0 mi NNE 4.6 mph - N/A   Clear
8:35 PM 19.4 °F 11.5 °F 10.4 °F 68% 30.33 in 10.0 mi NE 5.8 mph - N/A   Clear
8:55 PM 19.4 °F 10.4 °F 10.4 °F 68% 30.34 in 10.0 mi NNE 6.9 mph - N/A   Clear
9:15 PM 19.4 °F 11.5 °F 10.4 °F 68% 30.35 in 10.0 mi NNE 5.8 mph - N/A   Clear
9:35 PM 19.4 °F 11.5 °F 10.4 °F 68% 30.35 in 10.0 mi NNE 5.8 mph - N/A   Clear
9:55 PM 19.4 °F 14.3 °F 10.4 °F 68% 30.35 in 10.0 mi NNE 3.5 mph - N/A   Clear
10:15 PM 17.6 °F 12.3 °F 10.4 °F 73% 30.37 in 10.0 mi North 3.5 mph - N/A   Clear
10:35 PM 19.4 °F - 10.4 °F 68% 30.37 in 10.0 mi Calm Calm - N/A   Clear
10:55 PM 17.6 °F 12.3 °F 10.4 °F 73% 30.37 in 10.0 mi NNE 3.5 mph - N/A   Clear
11:15 PM 17.6 °F 12.3 °F 10.4 °F 73% 30.37 in 10.0 mi NNE 3.5 mph - N/A   Clear
11:35 PM 17.6 °F 12.3 °F 10.4 °F 73% 30.38 in 10.0 mi North 3.5 mph - N/A   Clear
11:55 PM 15.8 °F - 10.4 °F 79% 30.40 in 10.0 mi Calm Calm - N/A   Clear